PZU GRAN FONDO SERIES | MEDIO FONDO
PZU Gran Fondo
Organizator : Sport Evolution Group Sp. z o.o.
Data : 2026-08-23
Miejsce : Warszawa
Dystans : 85 km
Mapa : Pokaż
Regulamin: Otwórz 
Zgłoszonych : 353
Wystartowało : 311
Nie ukończyło : 2
Ukończyło : 309
Na trasie : 0
Klasyfikacje w punktach pomiarowych: Start | 33.8km | 34.3km | Meta
Klasyfikacje wg kategorii: Wszyscy | B1 | B2 | B3 | W OPEN | M OPEN | Drużynowa | W18 | M18 | W30 | M30 | W40 | M40 | W50 | M50 | W60 | M60 | M70
Klasyfikacja wg czasu brutto. Wyniki nieoficjalne !!!
MscZawodnikNumerKlubMiejscowośćKrajKategoriaMkatK/MFala startowaCzas startu33.8km34.3kmCzas
netto
85km
Czas
brutto
85km
Różnica
w czasie
Tempo
min/km
Tempo
km/h
         
1CHOROŚ Krzysztof 1312BICYKL PIASECZNOPIASECZNOM301M 2B100:00:0900:45:0800:45:4802:02:1602:02:26 1:2641.7 (100%)
2CYBULA Tomasz 130804-382POLSKAM302M 3B100:00:0500:46:5000:47:3502:07:2402:07:30+00:05:03 (4.0%)1:2940 (95.9%)
3UZDOWSKI Mariusz 1027WATAHA CCJÓZEFOSŁAWM303M 5B100:00:0400:46:5100:47:3502:07:2802:07:32+00:05:06 (4.0%)1:2940 (95.9%)
4LIS Marcin 1037MARCIN LISLUBLINM304M 6B100:00:03  02:07:3002:07:33+00:05:07 (4.0%)1:2940 (95.9%)
5PADZIK Robert 1219WARSZAWAM305M 8B100:00:0600:46:5100:47:3502:07:2702:07:33+00:05:07 (4.0%)1:2940 (95.9%)
6BARABASZ Michał 1311CENTRUMROWEROWE.PLWARSZAWAM306M 14B100:00:0400:46:5200:47:3602:07:3202:07:36+00:05:09 (4.0%)1:3040 (95.9%)
7KMITA Robert 1200WESTIN WARSAW TEAMWARSZAWAM307M 15B100:00:0400:46:5000:47:2702:07:3302:07:38+00:05:11 (4.1%)1:3040 (95.9%)
8GIL Remigiusz 1215LEGIA CYCLING CLUBSTRZELCE KRAJEŃSKIEM308M 16B100:00:0300:46:5200:47:3602:07:3602:07:40+00:05:14 (4.1%)1:3040 (95.9%)
9MARYCZ Jarosław 1356KOSZALINM309M 17B300:00:0000:46:5500:47:3902:07:4202:07:42+00:05:16 (4.1%)1:3039.9 (95.7%)
10STACHYRA Arkadiusz 1222KOBYLKAM3010M 22B100:00:0300:46:5300:47:3702:10:2302:10:27+00:08:00 (6.1%)1:3239.1 (93.8%)
11GRZELAK Adrian 1320BRZEŹCEM3011M 24B100:00:1000:47:5600:48:3902:13:0802:13:18+00:10:52 (8.2%)1:3338.3 (91.8%)
12CHORĄŻYCZEWSKI Michał 1072ND100POZNAŃM3012M 26B100:00:0500:48:0000:48:4402:13:1802:13:23+00:10:57 (8.2%)1:3438.3 (91.8%)
13MATUSEVICH Yury 1048WRSW.CCWARSZAWAM3013M 27B200:00:1100:47:5500:48:3902:13:1502:13:27+00:11:00 (8.3%)1:3438.3 (91.8%)
14PYTLOS Damian 1130WARSZAWAM3014M 28B200:00:1100:49:3600:50:1802:13:1602:13:28+00:11:01 (8.3%)1:3438.3 (91.8%)
15PAŁASZ Artur 1184JULIANÓWM3015M 33B100:00:1400:49:3300:50:1602:13:1702:13:31+00:11:05 (8.3%)1:3438.3 (91.8%)
16PATER Michał 1015ZARĘBYM3016M 35B200:01:1800:48:2700:49:0902:12:1302:13:31+00:11:05 (8.3%)1:3338.6 (92.6%)
17MYSZOREK Michał 1038LEGIONOWOM3017M 39B200:01:1000:48:3400:49:1402:12:2102:13:32+00:11:05 (8.3%)1:3338.5 (92.3%)
18SZYMKIEWICZ Robert 1125CHOROSZCZM3018M 41B100:00:0500:49:4300:50:2702:13:2702:13:32+00:11:06 (8.3%)1:3438.2 (91.6%)
19FRYZE Arkadiusz 1056PERSONALNY TRENING KOLARSKIŁÓDŹM3019M 43B100:00:0300:49:4100:50:2402:13:3002:13:33+00:11:07 (8.3%)1:3438.2 (91.6%)
20BORZEWSKI Dariusz 1252RETRO TEAMWIELISZEWM3020M 51B200:01:1400:49:5800:50:4502:17:1702:18:31+00:16:05 (11.6%)1:3637.2 (89.2%)
21KUTA Jacek 1255PZU SPORT TEAMWARSZAWAM3021M 52B200:01:1100:50:0000:50:4802:17:2202:18:34+00:16:08 (11.6%)1:3637.1 (89.0%)
22KUROWSKI Kamil 1337WARSZAWAM3022M 55B200:00:1400:50:5900:51:4702:18:2102:18:36+00:16:10 (11.7%)1:3736.9 (88.5%)
23PYTLARZ Krzysztof 1049WARSZAWAM3023M 65B200:01:1300:49:5900:50:4702:19:3402:20:48+00:18:22 (13.0%)1:3836.5 (87.5%)
24WÓJCICKI Robert 1094OLSZTYNM3024M 67B200:01:2200:49:0300:49:5002:20:4902:22:12+00:19:46 (13.9%)1:3936.2 (86.8%)
25SZWAJKA Bartosz 1140WARSZAWAM3025M 74B200:01:3500:52:3000:53:1602:20:5002:22:26+00:19:59 (14.0%)1:3936.2 (86.8%)
26SIESTRZYKOWSKI Kamil 1261KOLARSKAGMINAKRZYWDAKRZYWDAM3026M 76B200:01:2500:51:4800:52:3402:21:0102:22:27+00:20:01 (14.1%)1:3936.2 (86.8%)
27SOKOŁOWSKI Bartosz 1328WARSZAWAM3027M 77B200:01:2900:51:3800:52:2602:20:5702:22:27+00:20:01 (14.1%)1:3936.2 (86.8%)
28FRANCUZ Piotr 1050NOWA WOLAM3028M 80B200:01:1500:51:5600:52:4302:21:1202:22:28+00:20:01 (14.1%)1:3936.1 (86.6%)
29OLKUSKI Jacek 1165WARSZAWAM3029M 81B200:01:3700:52:2800:53:1402:20:5102:22:28+00:20:01 (14.1%)1:3936.2 (86.8%)
30KRAŚNICKI Kamil 1273WARSZAWAM3030M 87B200:01:2300:51:4900:52:3702:21:0602:22:30+00:20:04 (14.1%)1:3936.1 (86.6%)
31DAWICKI Mateusz 1110TUREKM3031M 88B200:01:1900:51:5500:52:4102:21:1102:22:30+00:20:04 (14.1%)1:3936.1 (86.6%)
32KASZUBA Paweł 1270DECATHLONMARKIM3032M 89B200:01:2300:51:5200:52:3902:21:0702:22:31+00:20:04 (14.1%)1:3936.1 (86.6%)
33NOWICKI Bogumił 1075GRUBASYPOZNAŃM3033M 91B100:01:2900:51:4000:52:2702:21:0102:22:31+00:20:05 (14.1%)1:3936.2 (86.8%)
34KACZOR Konrad 1234WARSZAWAM3034M 96B200:01:2100:51:4400:52:3002:21:1102:22:33+00:20:07 (14.1%)1:3936.1 (86.6%)
35SOWIŃSKI Gabriel 1174PZU SPORT TEAMWARSZAWAM3035M 102B200:01:3100:51:4000:52:2702:21:0402:22:35+00:20:09 (14.1%)1:3936.2 (86.8%)
36GODEWSKI Michał 1166WROCŁAWM3036M 106B100:00:0300:53:1400:54:0102:24:4902:24:52+00:22:26 (15.5%)1:4235.2 (84.4%)
37SZMIDT Norbert 1023GOLINAM3037M 109B200:01:2100:51:4700:52:3402:24:0802:25:29+00:23:03 (15.8%)1:4135.4 (84.9%)
38NOREMBERG Igor 1051WARSZAWAM3038M 110B200:01:1700:55:5100:56:4202:27:4102:28:58+00:26:32 (17.8%)1:4434.5 (82.7%)
39BIEDRZYCKI Tomasz 1194GÓRA KALWARIAM3039M 112B300:02:3300:55:0900:55:5902:26:2602:28:59+00:26:32 (17.8%)1:4334.8 (83.5%)
40CZAPLICKI Przemysław 1221AIRONIGRAJEWOM3040M 114B100:00:1400:56:5400:57:4502:28:4702:29:01+00:26:35 (17.8%)1:4534.3 (82.3%)
41MOTAK Michał 133302-690WARSZAWAM3041M 115B200:01:3800:55:3000:56:2002:27:2202:29:01+00:26:35 (17.8%)1:4434.6 (83.0%)
42MOLCHANIUK Igor 1248420 RACING TEAMWARSZAWAM3042M 116B200:01:2800:55:4000:56:3102:27:3302:29:02+00:26:35 (17.8%)1:4434.6 (83.0%)
43LIS Marek 1170LUBINM3043M 118B100:00:1300:52:5500:53:4202:28:4902:29:03+00:26:37 (17.9%)1:4534.3 (82.3%)
44HULAI Uladzislau 124901-233WARSZAWAM3044M 120B200:01:2900:55:3700:56:2802:27:3502:29:04+00:26:38 (17.9%)1:4434.6 (83.0%)
45PARUBETS Leonid 1254WARSZAWAM3045M 122B200:01:2700:55:3900:56:2902:27:3702:29:05+00:26:39 (17.9%)1:4434.6 (83.0%)
46MAJCHER Bartłomiej 1129WARSZAWAM3046M 127B100:00:0900:51:1700:52:0402:28:5702:29:07+00:26:41 (17.9%)1:4534.2 (82.0%)
47PRZESŁAW Damian 1237WARSZAWAM3047M 131B200:01:3300:55:3300:56:2502:27:3902:29:13+00:26:46 (17.9%)1:4434.5 (82.7%)
48ANTOSIK Daniel 1334BRUDZEWM3048M 134B200:01:2000:54:0100:54:5202:27:5602:29:16+00:26:50 (18.0%)1:4434.5 (82.7%)
49PIETRZAK Marcin 1024WARSZAWAM3049M 139B200:01:4800:55:5200:56:4202:33:1002:34:58+00:32:32 (21.0%)1:4833.3 (79.9%)
50MAŁYSZCZYK Mateusz 1245BRAKWARSZAWAM3050M 145B200:01:3400:59:1401:00:0802:34:5102:36:25+00:33:59 (21.7%)1:4932.9 (78.9%)
51KOŚCIOŁEK Przemysław 1007WARSZAWAM3051M 151B300:02:2800:58:1900:59:1302:34:0402:36:32+00:34:06 (21.8%)1:4833.1 (79.4%)
52MALEWSKI Wojciech 135800-754WARSZAWAM3052M 156B300:02:3500:58:1200:59:0602:33:5902:36:35+00:34:09 (21.8%)1:4833.1 (79.4%)
53SMOCZYK Grzegorz 1260DECATHLONLUSOWOM3053M 162B200:01:2300:56:2000:57:0902:35:2402:36:47+00:34:20 (21.9%)1:4932.8 (78.7%)
54CZAPLICKI Piotr 1246PZU SPORT TEAMWARSZAWAM3054M 164B200:02:2800:58:2000:59:1302:34:5702:37:26+00:35:00 (22.2%)1:4932.9 (78.9%)
55LIPCZYŃSKI Łukasz 1061BROBIKEWARSZAWAM3055M 165B200:01:2600:55:4000:56:3102:36:2202:37:48+00:35:22 (22.4%)1:5032.6 (78.2%)
56KAMEDUŁA Karol 1236ROSOCHATAM3056M 166B200:01:4200:59:0701:00:0002:36:3802:38:21+00:35:54 (22.7%)1:5032.6 (78.2%)
57MORAWSKI Karol 1093WIRTUALNA POLSKA MEDIAPRUSZKÓWM3057M 167B100:00:1700:58:3100:59:2702:39:2102:39:38+00:37:12 (23.3%)1:5232 (76.7%)
58TURYK Vadzim 1143GDAŃSKM3058M 168B200:01:4200:59:0400:59:5802:38:4102:40:24+00:37:58 (23.7%)1:5232.1 (77.0%)
59ŻUCZKOWSKI Mateusz 1128WARSZAWAM3059M 169B300:02:2900:58:1900:59:1302:38:0502:40:34+00:38:07 (23.8%)1:5132.3 (77.5%)
60GRZĄDKA Łukasz 1021WARSAWM3060M 170B200:01:3301:10:0101:10:5002:39:5702:41:31+00:39:04 (24.2%)1:5231.9 (76.5%)
61SUCHOCKI Hubert 1074WARSZAWAM3061M 173B200:01:1700:58:0900:59:0702:41:2202:42:40+00:40:14 (24.7%)1:5331.6 (75.8%)
62SKOREK Karol 1238ŚWIDNIKM3062M 176B200:01:2400:59:0301:00:0002:45:1102:46:35+00:44:09 (26.5%)1:5630.9 (74.1%)
63ŁAZOWSKI Piotr 1008WARSZAWAM3063M 178B300:02:4801:04:4601:05:4402:45:2102:48:09+00:45:43 (27.2%)1:5630.8 (73.9%)
64KANADYS Piotr 1274WARSZAWAM3064M 181B200:01:4500:58:2700:59:2002:46:3002:48:15+00:45:48 (27.2%)1:5730.6 (73.4%)
65RAJ Paweł 1332WARSZAWAM3065M 186B200:01:3201:00:3601:01:3502:50:3502:52:08+00:49:41 (28.9%)2:0029.9 (71.7%)
66NIKIEL Maciej 1118WARSZAWAM3066M 188B300:02:2701:01:3101:02:2002:50:3202:52:59+00:50:33 (29.2%)2:0029.9 (71.7%)
67KOSIOREK Łukasz 1295WARSZAWAM3067M 195B300:02:3501:04:3401:05:3502:57:0402:59:40+00:57:14 (31.9%)2:0428.8 (69.1%)
68ZIELIŃSKI Michał 1355WARSZAWAM3068M 201B300:02:4001:07:0101:08:0503:00:0103:02:42+01:00:16 (33.0%)2:0728.3 (67.9%)
69SIMBOROWSKI Bartłomiej 1294MSZCZONÓWM3069M 203B300:02:3501:04:2801:05:2903:00:3203:03:08+01:00:41 (33.1%)2:0728.3 (67.9%)
70MUKLEWICZ Mateusz 1335POZNAŃM3070M 204B200:01:4701:05:1901:06:1903:01:2603:03:14+01:00:48 (33.2%)2:0828.1 (67.4%)
71STRZEMIECZNY Michał 1317WARSZAWAM3071M 205B100:00:1900:59:4001:00:4003:03:0003:03:19+01:00:53 (33.2%)2:0927.9 (66.9%)
72PERYT Jacek 1267WARSZAWAM3072M 207B200:01:2201:02:4501:03:4403:03:3903:05:02+01:02:35 (33.8%)2:0927.8 (66.7%)
73AUGUSTYNIK Mateusz 1079WARSZAWAM3073M 208B300:02:4201:05:4401:06:4503:02:3703:05:20+01:02:53 (33.9%)2:0827.9 (66.9%)
74KACPERSKI Dariusz 1009WARSZAWAM3074M 209B300:02:4801:04:4701:05:4403:03:0103:05:50+01:03:23 (34.1%)2:0927.9 (66.9%)
75RUDNIK Dawid 1193BIEGAJĄCE ZĄBKIZĄBKIM3075M 212B300:02:3601:05:1401:06:1703:05:4403:08:21+01:05:54 (35.0%)2:1127.5 (65.9%)
76ANTIPOV Egor 1351GRIZZLY TRACK CLUBWARSZAWAM3076M 213B300:02:5801:07:0401:08:0003:05:4403:08:43+01:06:17 (35.1%)2:1127.5 (65.9%)
77PAWLIKOWSKI Cezary 1066WARSZAWAM3077M 216B200:01:1200:49:5900:50:4703:09:2403:10:36+01:08:10 (35.8%)2:1326.9 (64.5%)
78RANKA Maksim 1146WARSZAWAM3078M 217B300:02:4901:11:1501:12:1203:08:0403:10:54+01:08:27 (35.9%)2:1227.1 (65.0%)
79WIATEREK Jakub 1133WARSZAWAM3079M 218B300:03:0301:08:4201:09:4103:08:1703:11:20+01:08:54 (36.0%)2:1227.1 (65.0%)
80JAŁOWIECKI Sebastian 1106WARSZAWAM3080M 219B300:02:4601:05:3601:06:3803:09:0903:11:56+01:09:29 (36.2%)2:1327 (64.7%)
81ORLEAŃSKI Michał 1299WARSZAWAM3081M 220B300:02:4801:13:2601:14:3203:09:5703:12:46+01:10:20 (36.5%)2:1426.9 (64.5%)
82ZAREMBA Mateusz 1182WARSZAWAM3082M 222B300:03:0301:09:1101:09:5303:10:4203:13:46+01:11:20 (36.8%)2:1426.7 (64.0%)
83STASIAK Tomasz 1303GDAŃSKM3083M 224B300:03:0601:11:4201:12:4403:12:3403:15:40+01:13:14 (37.4%)2:1526.5 (63.5%)
84CHARLAK Marcin 1047WARSZAWAM3084M 226B200:01:3601:05:0901:06:1203:16:5603:18:33+01:16:07 (38.3%)2:1925.9 (62.1%)
85BIADUŃ Mateusz 1070RASZYNM3085M 228B300:02:5801:09:3001:10:2303:18:1303:21:11+01:18:45 (39.1%)2:1925.7 (61.6%)
86CEPOWICZ Karol 1132WARSZAWAM3086M 237B300:02:5501:11:5101:12:4203:22:2303:25:19+01:22:52 (40.4%)2:2225.2 (60.4%)
87VASYLENKO Vitalii 1187CHAIN GANGWARSZAWAM3087M 242B300:03:0801:11:4001:12:4203:33:0803:36:16+01:33:50 (43.4%)2:3023.9 (57.3%)
88SEMENTSOV Andrii 1147WARSZAWAM3088M 243B300:03:0701:11:4101:12:4303:33:0903:36:16+01:33:50 (43.4%)2:3023.9 (57.3%)
89ŚNIADAŁA Mariusz 1151DŁUGOSIODŁOM3089M 245B300:02:2801:17:4401:19:0003:39:2803:41:57+01:39:31 (44.8%)2:3423.2 (55.6%)
90ANDRZEJEWSKI Jacek 1195PRUSZKÓWM3090M 246B300:03:0701:19:3001:20:4303:42:1803:45:25+01:42:59 (45.7%)2:3622.9 (54.9%)
Niesklasyfikowani
MANCZYK Adrian 1064SKÓRZEWOM30B2DNF00:46:47 DNF00:47:32 DNF02:16:30 DNF02:16:38 DNF-- (0.0%)
MACIASZEK Maciej 1160LĘBORKM30B3DNF DNF DNF DNF DNF-- (0.0%)
Znaleziono 92 wynik(ów)